owner,sensor,date,latitude,longitude,air_pressure(mBar),qcFlag 
WAVCIS,ioos:station:WAVCIS:CSI06:1,2009-12-01T00:00:00Z,28.8667,-90.4833,1014.77,11111222 
WAVCIS,ioos:station:WAVCIS:CSI06:1,2009-12-01T01:00:00Z,28.8667,-90.4833,1015.31,11111222 
WAVCIS,ioos:station:WAVCIS:CSI06:1,2009-12-01T02:00:00Z,28.8667,-90.4833,1016.59,11111222 
WAVCIS,ioos:station:WAVCIS:CSI06:1,2009-12-01T03:00:00Z,28.8667,-90.4833,1016.85,11111222 
WAVCIS,ioos:station:WAVCIS:CSI06:1,2009-12-01T04:00:00Z,28.8667,-90.4833,1016.76,11111222 
WAVCIS,ioos:station:WAVCIS:CSI06:1,2009-12-01T05:00:00Z,28.8667,-90.4833,1016.37,11111222 
WAVCIS,ioos:station:WAVCIS:CSI06:1,2009-12-01T06:00:00Z,28.8667,-90.4833,1015.96,11111222 
WAVCIS,ioos:station:WAVCIS:CSI06:1,2009-12-01T07:00:00Z,28.8667,-90.4833,1014.59,11111222 
WAVCIS,ioos:station:WAVCIS:CSI06:1,2009-12-01T08:00:00Z,28.8667,-90.4833,1014.5,11111222 
WAVCIS,ioos:station:WAVCIS:CSI06:1,2009-12-01T09:00:00Z,28.8667,-90.4833,1014.38,11111222 
WAVCIS,ioos:station:WAVCIS:CSI06:1,2009-12-01T10:00:00Z,28.8667,-90.4833,1014.2,11111222 
WAVCIS,ioos:station:WAVCIS:CSI06:1,2009-12-01T11:00:00Z,28.8667,-90.4833,1013.95,11111222 
WAVCIS,ioos:station:WAVCIS:CSI06:1,2009-12-01T12:00:00Z,28.8667,-90.4833,1012.6,11111222 
WAVCIS,ioos:station:WAVCIS:CSI06:1,2009-12-01T13:00:00Z,28.8667,-90.4833,1012.22,11111222 
WAVCIS,ioos:station:WAVCIS:CSI06:1,2009-12-01T14:00:00Z,28.8667,-90.4833,1012.64,11111222 
WAVCIS,ioos:station:WAVCIS:CSI06:1,2009-12-01T15:00:00Z,28.8667,-90.4833,1012.42,11111222 
WAVCIS,ioos:station:WAVCIS:CSI06:1,2009-12-01T16:00:00Z,28.8667,-90.4833,1012.31,11111222 
WAVCIS,ioos:station:WAVCIS:CSI06:1,2009-12-01T17:00:00Z,28.8667,-90.4833,1010.73,11111222 
WAVCIS,ioos:station:WAVCIS:CSI06:1,2009-12-01T18:00:00Z,28.8667,-90.4833,1009.03,11111222 
WAVCIS,ioos:station:WAVCIS:CSI06:1,2009-12-01T19:00:00Z,28.8667,-90.4833,1005.314,11111222 
WAVCIS,ioos:station:WAVCIS:CSI06:1,2009-12-01T20:00:00Z,28.8667,-90.4833,1005.817,11111222 
WAVCIS,ioos:station:WAVCIS:CSI06:1,2009-12-01T21:00:00Z,28.8667,-90.4833,1004.988,11111222 
WAVCIS,ioos:station:WAVCIS:CSI06:1,2009-12-01T22:00:00Z,28.8667,-90.4833,1003.774,11111222 
WAVCIS,ioos:station:WAVCIS:CSI06:1,2009-12-01T23:00:00Z,28.8667,-90.4833,1003.693,11111222 
WAVCIS,ioos:station:WAVCIS:CSI06:1,2009-12-02T00:00:00Z,28.8667,-90.4833,1002.019,11111222 
WAVCIS,ioos:station:WAVCIS:CSI06:1,2009-12-02T01:00:00Z,28.8667,-90.4833,1001.754,11111222 
WAVCIS,ioos:station:WAVCIS:CSI06:1,2009-12-02T02:00:00Z,28.8667,-90.4833,1001.284,11111222 
WAVCIS,ioos:station:WAVCIS:CSI06:1,2009-12-02T03:00:00Z,28.8667,-90.4833,1001.892,11111222 
WAVCIS,ioos:station:WAVCIS:CSI06:1,2009-12-02T04:00:00Z,28.8667,-90.4833,1000.927,11111222 
WAVCIS,ioos:station:WAVCIS:CSI06:1,2009-12-02T05:00:00Z,28.8667,-90.4833,1000.518,11111222 
WAVCIS,ioos:station:WAVCIS:CSI06:1,2009-12-02T06:00:00Z,28.8667,-90.4833,1000.033,11111222 
WAVCIS,ioos:station:WAVCIS:CSI06:1,2009-12-02T07:00:00Z,28.8667,-90.4833,1000.519,11111222 
WAVCIS,ioos:station:WAVCIS:CSI06:1,2009-12-02T08:00:00Z,28.8667,-90.4833,999.166,11111222 
WAVCIS,ioos:station:WAVCIS:CSI06:1,2009-12-02T09:00:00Z,28.8667,-90.4833,999.387,11111222 
WAVCIS,ioos:station:WAVCIS:CSI06:1,2009-12-02T10:00:00Z,28.8667,-90.4833,998.349,11111222 
WAVCIS,ioos:station:WAVCIS:CSI06:1,2009-12-02T11:00:00Z,28.8667,-90.4833,999.117,11111222 
WAVCIS,ioos:station:WAVCIS:CSI06:1,2009-12-02T12:00:00Z,28.8667,-90.4833,1000.793,11111222 
WAVCIS,ioos:station:WAVCIS:CSI06:1,2009-12-02T13:00:00Z,28.8667,-90.4833,1001.848,11111222 
WAVCIS,ioos:station:WAVCIS:CSI06:1,2009-12-02T14:00:00Z,28.8667,-90.4833,1002.973,11111222 
WAVCIS,ioos:station:WAVCIS:CSI06:1,2009-12-02T15:00:00Z,28.8667,-90.4833,1004.527,11111222 
WAVCIS,ioos:station:WAVCIS:CSI06:1,2009-12-02T16:00:00Z,28.8667,-90.4833,1005.446,11111222 
WAVCIS,ioos:station:WAVCIS:CSI06:1,2009-12-02T17:00:00Z,28.8667,-90.4833,1005.594,11111222 
WAVCIS,ioos:station:WAVCIS:CSI06:1,2009-12-02T18:00:00Z,28.8667,-90.4833,1004.951,11111222 
WAVCIS,ioos:station:WAVCIS:CSI06:1,2009-12-02T19:00:00Z,28.8667,-90.4833,1004.035,11111222 
WAVCIS,ioos:station:WAVCIS:CSI06:1,2009-12-02T20:00:00Z,28.8667,-90.4833,1004.375,11111222 
WAVCIS,ioos:station:WAVCIS:CSI06:1,2009-12-02T21:00:00Z,28.8667,-90.4833,1005.197,11111222 
WAVCIS,ioos:station:WAVCIS:CSI06:1,2009-12-02T22:00:00Z,28.8667,-90.4833,1006.165,11111222 
WAVCIS,ioos:station:WAVCIS:CSI06:1,2009-12-02T23:00:00Z,28.8667,-90.4833,1007.049,11111222 
WAVCIS,ioos:station:WAVCIS:CSI06:1,2009-12-03T00:00:00Z,28.8667,-90.4833,1008.36,11111222 
WAVCIS,ioos:station:WAVCIS:CSI06:1,2009-12-03T01:00:00Z,28.8667,-90.4833,1009.55,11111222 
WAVCIS,ioos:station:WAVCIS:CSI06:1,2009-12-03T02:00:00Z,28.8667,-90.4833,1010.46,11111222 
WAVCIS,ioos:station:WAVCIS:CSI06:1,2009-12-03T03:00:00Z,28.8667,-90.4833,1011.42,11111222 
WAVCIS,ioos:station:WAVCIS:CSI06:1,2009-12-03T04:00:00Z,28.8667,-90.4833,1012.59,11111222 
WAVCIS,ioos:station:WAVCIS:CSI06:1,2009-12-03T05:00:00Z,28.8667,-90.4833,1012.99,11111222 
WAVCIS,ioos:station:WAVCIS:CSI06:1,2009-12-03T06:00:00Z,28.8667,-90.4833,1012.67,11111222 
WAVCIS,ioos:station:WAVCIS:CSI06:1,2009-12-03T07:00:00Z,28.8667,-90.4833,1013.13,11111222 
WAVCIS,ioos:station:WAVCIS:CSI06:1,2009-12-03T08:00:00Z,28.8667,-90.4833,1013.83,11111222 
WAVCIS,ioos:station:WAVCIS:CSI06:1,2009-12-03T09:00:00Z,28.8667,-90.4833,1014.54,11111222 
WAVCIS,ioos:station:WAVCIS:CSI06:1,2009-12-03T10:00:00Z,28.8667,-90.4833,1015.09,11111222 
WAVCIS,ioos:station:WAVCIS:CSI06:1,2009-12-03T11:00:00Z,28.8667,-90.4833,1015.64,11111222 
WAVCIS,ioos:station:WAVCIS:CSI06:1,2009-12-03T12:00:00Z,28.8667,-90.4833,1016.46,11111222 
WAVCIS,ioos:station:WAVCIS:CSI06:1,2009-12-03T13:00:00Z,28.8667,-90.4833,1016.92,11111222 
WAVCIS,ioos:station:WAVCIS:CSI06:1,2009-12-03T14:00:00Z,28.8667,-90.4833,1018.28,11111222 
WAVCIS,ioos:station:WAVCIS:CSI06:1,2009-12-03T15:00:00Z,28.8667,-90.4833,1018.67,11111222 
WAVCIS,ioos:station:WAVCIS:CSI06:1,2009-12-03T16:00:00Z,28.8667,-90.4833,1019.32,11111222 
WAVCIS,ioos:station:WAVCIS:CSI06:1,2009-12-03T17:00:00Z,28.8667,-90.4833,1019.53,11111222 
WAVCIS,ioos:station:WAVCIS:CSI06:1,2009-12-03T18:00:00Z,28.8667,-90.4833,1019.0,11111222 
WAVCIS,ioos:station:WAVCIS:CSI06:1,2009-12-03T19:00:00Z,28.8667,-90.4833,1018.38,11111222 
WAVCIS,ioos:station:WAVCIS:CSI06:1,2009-12-03T20:00:00Z,28.8667,-90.4833,1018.33,11111222 
WAVCIS,ioos:station:WAVCIS:CSI06:1,2009-12-03T21:00:00Z,28.8667,-90.4833,1018.54,11111222 
WAVCIS,ioos:station:WAVCIS:CSI06:1,2009-12-03T22:00:00Z,28.8667,-90.4833,1018.57,11111222 
WAVCIS,ioos:station:WAVCIS:CSI06:1,2009-12-03T23:00:00Z,28.8667,-90.4833,1018.52,11111222 
WAVCIS,ioos:station:WAVCIS:CSI06:1,2009-12-04T00:00:00Z,28.8667,-90.4833,1018.78,11111222 
WAVCIS,ioos:station:WAVCIS:CSI06:1,2009-12-04T01:00:00Z,28.8667,-90.4833,1019.35,11111222 
WAVCIS,ioos:station:WAVCIS:CSI06:1,2009-12-04T02:00:00Z,28.8667,-90.4833,1020.32,11111222 
WAVCIS,ioos:station:WAVCIS:CSI06:1,2009-12-04T03:00:00Z,28.8667,-90.4833,1020.64,11111222 
WAVCIS,ioos:station:WAVCIS:CSI06:1,2009-12-04T04:00:00Z,28.8667,-90.4833,1020.17,11111222 
WAVCIS,ioos:station:WAVCIS:CSI06:1,2009-12-04T05:00:00Z,28.8667,-90.4833,1020.33,11111222 
WAVCIS,ioos:station:WAVCIS:CSI06:1,2009-12-04T06:00:00Z,28.8667,-90.4833,1020.14,11111222 
WAVCIS,ioos:station:WAVCIS:CSI06:1,2009-12-04T07:00:00Z,28.8667,-90.4833,1020.41,11111222 
WAVCIS,ioos:station:WAVCIS:CSI06:1,2009-12-04T08:00:00Z,28.8667,-90.4833,1020.32,11111222 
WAVCIS,ioos:station:WAVCIS:CSI06:1,2009-12-04T09:00:00Z,28.8667,-90.4833,1019.43,11111222 
WAVCIS,ioos:station:WAVCIS:CSI06:1,2009-12-04T10:00:00Z,28.8667,-90.4833,1019.26,11111222 
WAVCIS,ioos:station:WAVCIS:CSI06:1,2009-12-04T11:00:00Z,28.8667,-90.4833,1019.82,11111222 
WAVCIS,ioos:station:WAVCIS:CSI06:1,2009-12-04T12:00:00Z,28.8667,-90.4833,1020.2,11111222 
WAVCIS,ioos:station:WAVCIS:CSI06:1,2009-12-04T13:00:00Z,28.8667,-90.4833,1021.45,11111222 
WAVCIS,ioos:station:WAVCIS:CSI06:1,2009-12-04T14:00:00Z,28.8667,-90.4833,1021.95,11111222 
WAVCIS,ioos:station:WAVCIS:CSI06:1,2009-12-04T15:00:00Z,28.8667,-90.4833,1021.51,11111222 
WAVCIS,ioos:station:WAVCIS:CSI06:1,2009-12-04T16:00:00Z,28.8667,-90.4833,1020.94,11111222 
WAVCIS,ioos:station:WAVCIS:CSI06:1,2009-12-04T17:00:00Z,28.8667,-90.4833,1018.28,11111222 
WAVCIS,ioos:station:WAVCIS:CSI06:1,2009-12-04T18:00:00Z,28.8667,-90.4833,1017.9,11111222 
WAVCIS,ioos:station:WAVCIS:CSI06:1,2009-12-04T19:00:00Z,28.8667,-90.4833,1017.14,11111222 
WAVCIS,ioos:station:WAVCIS:CSI06:1,2009-12-04T20:00:00Z,28.8667,-90.4833,1016.46,11111222 
WAVCIS,ioos:station:WAVCIS:CSI06:1,2009-12-04T21:00:00Z,28.8667,-90.4833,1015.62,11111222 
WAVCIS,ioos:station:WAVCIS:CSI06:1,2009-12-04T22:00:00Z,28.8667,-90.4833,1016.21,11111222 
WAVCIS,ioos:station:WAVCIS:CSI06:1,2009-12-04T23:00:00Z,28.8667,-90.4833,1017.34,11111222 
WAVCIS,ioos:station:WAVCIS:CSI06:1,2009-12-05T00:00:00Z,28.8667,-90.4833,1017.26,11111222 
WAVCIS,ioos:station:WAVCIS:CSI06:1,2009-12-05T01:00:00Z,28.8667,-90.4833,1017.44,11111222 
WAVCIS,ioos:station:WAVCIS:CSI06:1,2009-12-05T02:00:00Z,28.8667,-90.4833,1019.29,11111222 
WAVCIS,ioos:station:WAVCIS:CSI06:1,2009-12-05T03:00:00Z,28.8667,-90.4833,1019.3,11111222 
WAVCIS,ioos:station:WAVCIS:CSI06:1,2009-12-05T04:00:00Z,28.8667,-90.4833,1020.47,11111222 
WAVCIS,ioos:station:WAVCIS:CSI06:1,2009-12-05T05:00:00Z,28.8667,-90.4833,1020.73,11111222 
WAVCIS,ioos:station:WAVCIS:CSI06:1,2009-12-05T06:00:00Z,28.8667,-90.4833,1020.51,11111222 
WAVCIS,ioos:station:WAVCIS:CSI06:1,2009-12-05T07:00:00Z,28.8667,-90.4833,1020.72,11111222 
WAVCIS,ioos:station:WAVCIS:CSI06:1,2009-12-05T08:00:00Z,28.8667,-90.4833,1021.2,11111222 
WAVCIS,ioos:station:WAVCIS:CSI06:1,2009-12-05T09:00:00Z,28.8667,-90.4833,1021.33,11111222 
WAVCIS,ioos:station:WAVCIS:CSI06:1,2009-12-05T10:00:00Z,28.8667,-90.4833,1021.92,11111222 
WAVCIS,ioos:station:WAVCIS:CSI06:1,2009-12-05T11:00:00Z,28.8667,-90.4833,1022.1,11111222 
WAVCIS,ioos:station:WAVCIS:CSI06:1,2009-12-05T12:00:00Z,28.8667,-90.4833,1022.77,11111222 
WAVCIS,ioos:station:WAVCIS:CSI06:1,2009-12-05T13:00:00Z,28.8667,-90.4833,1023.06,11111222 
WAVCIS,ioos:station:WAVCIS:CSI06:1,2009-12-05T14:00:00Z,28.8667,-90.4833,1023.8,11111222 
WAVCIS,ioos:station:WAVCIS:CSI06:1,2009-12-05T15:00:00Z,28.8667,-90.4833,1024.15,11111222 
WAVCIS,ioos:station:WAVCIS:CSI06:1,2009-12-05T16:00:00Z,28.8667,-90.4833,1024.38,11111222 
WAVCIS,ioos:station:WAVCIS:CSI06:1,2009-12-05T17:00:00Z,28.8667,-90.4833,1024.05,11111222 
WAVCIS,ioos:station:WAVCIS:CSI06:1,2009-12-05T18:00:00Z,28.8667,-90.4833,1023.31,11111222 
WAVCIS,ioos:station:WAVCIS:CSI06:1,2009-12-05T19:00:00Z,28.8667,-90.4833,1022.59,11111222 
WAVCIS,ioos:station:WAVCIS:CSI06:1,2009-12-05T20:00:00Z,28.8667,-90.4833,1022.78,11111222 
WAVCIS,ioos:station:WAVCIS:CSI06:1,2009-12-05T21:00:00Z,28.8667,-90.4833,1022.67,11111222 
WAVCIS,ioos:station:WAVCIS:CSI06:1,2009-12-05T22:00:00Z,28.8667,-90.4833,1022.49,11111222 
WAVCIS,ioos:station:WAVCIS:CSI06:1,2009-12-05T23:00:00Z,28.8667,-90.4833,1022.44,11111222 
WAVCIS,ioos:station:WAVCIS:CSI06:1,2009-12-06T00:00:00Z,28.8667,-90.4833,1022.13,11111222 
WAVCIS,ioos:station:WAVCIS:CSI06:1,2009-12-06T01:00:00Z,28.8667,-90.4833,1021.98,11111222 
WAVCIS,ioos:station:WAVCIS:CSI06:1,2009-12-06T02:00:00Z,28.8667,-90.4833,1021.87,11111222 
WAVCIS,ioos:station:WAVCIS:CSI06:1,2009-12-06T03:00:00Z,28.8667,-90.4833,1022.23,11111222 
WAVCIS,ioos:station:WAVCIS:CSI06:1,2009-12-06T04:00:00Z,28.8667,-90.4833,1021.84,11111222 
WAVCIS,ioos:station:WAVCIS:CSI06:1,2009-12-06T05:00:00Z,28.8667,-90.4833,1022.02,11111222 
WAVCIS,ioos:station:WAVCIS:CSI06:1,2009-12-06T06:00:00Z,28.8667,-90.4833,1021.28,11111222 
WAVCIS,ioos:station:WAVCIS:CSI06:1,2009-12-06T07:00:00Z,28.8667,-90.4833,1021.67,11111222 
WAVCIS,ioos:station:WAVCIS:CSI06:1,2009-12-06T08:00:00Z,28.8667,-90.4833,1021.66,11111222 
WAVCIS,ioos:station:WAVCIS:CSI06:1,2009-12-06T09:00:00Z,28.8667,-90.4833,1021.65,11111222 
WAVCIS,ioos:station:WAVCIS:CSI06:1,2009-12-06T10:00:00Z,28.8667,-90.4833,1020.93,11111222 
WAVCIS,ioos:station:WAVCIS:CSI06:1,2009-12-06T11:00:00Z,28.8667,-90.4833,1021.18,11111222 
WAVCIS,ioos:station:WAVCIS:CSI06:1,2009-12-06T12:00:00Z,28.8667,-90.4833,1020.55,11111222 
WAVCIS,ioos:station:WAVCIS:CSI06:1,2009-12-06T13:00:00Z,28.8667,-90.4833,1021.66,11111222 
WAVCIS,ioos:station:WAVCIS:CSI06:1,2009-12-06T14:00:00Z,28.8667,-90.4833,1022.01,11111222 
WAVCIS,ioos:station:WAVCIS:CSI06:1,2009-12-06T15:00:00Z,28.8667,-90.4833,1021.77,11111222 
WAVCIS,ioos:station:WAVCIS:CSI06:1,2009-12-06T16:00:00Z,28.8667,-90.4833,1021.61,11111222 
WAVCIS,ioos:station:WAVCIS:CSI06:1,2009-12-06T17:00:00Z,28.8667,-90.4833,1020.96,11111222 
WAVCIS,ioos:station:WAVCIS:CSI06:1,2009-12-06T18:00:00Z,28.8667,-90.4833,1020.43,11111222 
WAVCIS,ioos:station:WAVCIS:CSI06:1,2009-12-06T19:00:00Z,28.8667,-90.4833,1019.24,11111222 
WAVCIS,ioos:station:WAVCIS:CSI06:1,2009-12-06T20:00:00Z,28.8667,-90.4833,1018.96,11111222 
WAVCIS,ioos:station:WAVCIS:CSI06:1,2009-12-06T21:00:00Z,28.8667,-90.4833,1018.43,11111222 
WAVCIS,ioos:station:WAVCIS:CSI06:1,2009-12-06T22:00:00Z,28.8667,-90.4833,1018.55,11111222 
WAVCIS,ioos:station:WAVCIS:CSI06:1,2009-12-06T23:00:00Z,28.8667,-90.4833,1018.34,11111222 
WAVCIS,ioos:station:WAVCIS:CSI06:1,2009-12-07T00:00:00Z,28.8667,-90.4833,1018.12,11111222 
WAVCIS,ioos:station:WAVCIS:CSI06:1,2009-12-07T01:00:00Z,28.8667,-90.4833,1018.16,11111222 
WAVCIS,ioos:station:WAVCIS:CSI06:1,2009-12-07T02:00:00Z,28.8667,-90.4833,1018.12,11111222 
WAVCIS,ioos:station:WAVCIS:CSI06:1,2009-12-07T03:00:00Z,28.8667,-90.4833,1018.36,11111222 
WAVCIS,ioos:station:WAVCIS:CSI06:1,2009-12-07T04:00:00Z,28.8667,-90.4833,1017.99,11111222 
WAVCIS,ioos:station:WAVCIS:CSI06:1,2009-12-07T05:00:00Z,28.8667,-90.4833,1017.72,11111222 
WAVCIS,ioos:station:WAVCIS:CSI06:1,2009-12-07T06:00:00Z,28.8667,-90.4833,1017.38,11111222 
WAVCIS,ioos:station:WAVCIS:CSI06:1,2009-12-07T07:00:00Z,28.8667,-90.4833,1016.97,11111222 
WAVCIS,ioos:station:WAVCIS:CSI06:1,2009-12-07T08:00:00Z,28.8667,-90.4833,1016.69,11111222 
WAVCIS,ioos:station:WAVCIS:CSI06:1,2009-12-07T09:00:00Z,28.8667,-90.4833,1016.72,11111222 
WAVCIS,ioos:station:WAVCIS:CSI06:1,2009-12-07T10:00:00Z,28.8667,-90.4833,1016.63,11111222 
WAVCIS,ioos:station:WAVCIS:CSI06:1,2009-12-07T11:00:00Z,28.8667,-90.4833,1016.7,11111222 
WAVCIS,ioos:station:WAVCIS:CSI06:1,2009-12-07T12:00:00Z,28.8667,-90.4833,1017.21,11111222 
WAVCIS,ioos:station:WAVCIS:CSI06:1,2009-12-07T13:00:00Z,28.8667,-90.4833,1017.44,11111222 
WAVCIS,ioos:station:WAVCIS:CSI06:1,2009-12-07T14:00:00Z,28.8667,-90.4833,1018.14,11111222 
WAVCIS,ioos:station:WAVCIS:CSI06:1,2009-12-07T15:00:00Z,28.8667,-90.4833,1018.9,11111222 
WAVCIS,ioos:station:WAVCIS:CSI06:1,2009-12-07T16:00:00Z,28.8667,-90.4833,1019.34,11111222 
WAVCIS,ioos:station:WAVCIS:CSI06:1,2009-12-07T17:00:00Z,28.8667,-90.4833,1018.27,11111222 
WAVCIS,ioos:station:WAVCIS:CSI06:1,2009-12-07T18:00:00Z,28.8667,-90.4833,1017.84,11111222 
WAVCIS,ioos:station:WAVCIS:CSI06:1,2009-12-07T19:00:00Z,28.8667,-90.4833,1016.46,11111222 
WAVCIS,ioos:station:WAVCIS:CSI06:1,2009-12-07T20:00:00Z,28.8667,-90.4833,1015.65,11111222 
WAVCIS,ioos:station:WAVCIS:CSI06:1,2009-12-07T21:00:00Z,28.8667,-90.4833,1015.81,11111222 
WAVCIS,ioos:station:WAVCIS:CSI06:1,2009-12-07T22:00:00Z,28.8667,-90.4833,1015.8,11111222 
WAVCIS,ioos:station:WAVCIS:CSI06:1,2009-12-07T23:00:00Z,28.8667,-90.4833,1015.74,11111222 
WAVCIS,ioos:station:WAVCIS:CSI06:1,2009-12-08T00:00:00Z,28.8667,-90.4833,1015.9,11111222 
WAVCIS,ioos:station:WAVCIS:CSI06:1,2009-12-08T01:00:00Z,28.8667,-90.4833,1016.38,11111222 
WAVCIS,ioos:station:WAVCIS:CSI06:1,2009-12-08T02:00:00Z,28.8667,-90.4833,1015.94,11111222 
WAVCIS,ioos:station:WAVCIS:CSI06:1,2009-12-08T03:00:00Z,28.8667,-90.4833,1015.31,11111222 
WAVCIS,ioos:station:WAVCIS:CSI06:1,2009-12-08T04:00:00Z,28.8667,-90.4833,1015.45,11111222 
WAVCIS,ioos:station:WAVCIS:CSI06:1,2009-12-08T05:00:00Z,28.8667,-90.4833,1014.73,11111222 
WAVCIS,ioos:station:WAVCIS:CSI06:1,2009-12-08T06:00:00Z,28.8667,-90.4833,1013.24,11111222 
WAVCIS,ioos:station:WAVCIS:CSI06:1,2009-12-08T07:00:00Z,28.8667,-90.4833,1013.04,11111222 
WAVCIS,ioos:station:WAVCIS:CSI06:1,2009-12-08T08:00:00Z,28.8667,-90.4833,1012.42,11111222 
WAVCIS,ioos:station:WAVCIS:CSI06:1,2009-12-08T09:00:00Z,28.8667,-90.4833,1012.14,11111222 
WAVCIS,ioos:station:WAVCIS:CSI06:1,2009-12-08T10:00:00Z,28.8667,-90.4833,1012.2,11111222 
WAVCIS,ioos:station:WAVCIS:CSI06:1,2009-12-08T11:00:00Z,28.8667,-90.4833,1012.41,11111222 
WAVCIS,ioos:station:WAVCIS:CSI06:1,2009-12-08T12:00:00Z,28.8667,-90.4833,1012.62,11111222 
WAVCIS,ioos:station:WAVCIS:CSI06:1,2009-12-08T13:00:00Z,28.8667,-90.4833,1012.9,11111222 
WAVCIS,ioos:station:WAVCIS:CSI06:1,2009-12-08T14:00:00Z,28.8667,-90.4833,1013.1,11111222 
WAVCIS,ioos:station:WAVCIS:CSI06:1,2009-12-08T15:00:00Z,28.8667,-90.4833,1012.94,11111222 
WAVCIS,ioos:station:WAVCIS:CSI06:1,2009-12-08T16:00:00Z,28.8667,-90.4833,1012.44,11111222 
WAVCIS,ioos:station:WAVCIS:CSI06:1,2009-12-08T17:00:00Z,28.8667,-90.4833,1011.54,11111222 
WAVCIS,ioos:station:WAVCIS:CSI06:1,2009-12-08T18:00:00Z,28.8667,-90.4833,1010.32,11111222 
WAVCIS,ioos:station:WAVCIS:CSI06:1,2009-12-08T19:00:00Z,28.8667,-90.4833,1008.43,11111222 
WAVCIS,ioos:station:WAVCIS:CSI06:1,2009-12-08T20:00:00Z,28.8667,-90.4833,1007.27,11111222 
WAVCIS,ioos:station:WAVCIS:CSI06:1,2009-12-08T21:00:00Z,28.8667,-90.4833,1006.575,11111222 
WAVCIS,ioos:station:WAVCIS:CSI06:1,2009-12-08T22:00:00Z,28.8667,-90.4833,1006.549,11111222 
WAVCIS,ioos:station:WAVCIS:CSI06:1,2009-12-08T23:00:00Z,28.8667,-90.4833,1006.33,11111222 
WAVCIS,ioos:station:WAVCIS:CSI06:1,2009-12-09T00:00:00Z,28.8667,-90.4833,1006.329,11111222 
WAVCIS,ioos:station:WAVCIS:CSI06:1,2009-12-09T01:00:00Z,28.8667,-90.4833,1006.683,11111222 
WAVCIS,ioos:station:WAVCIS:CSI06:1,2009-12-09T02:00:00Z,28.8667,-90.4833,1007.057,11111222 
WAVCIS,ioos:station:WAVCIS:CSI06:1,2009-12-09T03:00:00Z,28.8667,-90.4833,1007.62,11111222 
WAVCIS,ioos:station:WAVCIS:CSI06:1,2009-12-09T04:00:00Z,28.8667,-90.4833,1007.11,11111222 
WAVCIS,ioos:station:WAVCIS:CSI06:1,2009-12-09T05:00:00Z,28.8667,-90.4833,1007.32,11111222 
WAVCIS,ioos:station:WAVCIS:CSI06:1,2009-12-09T06:00:00Z,28.8667,-90.4833,1007.29,11111222 
WAVCIS,ioos:station:WAVCIS:CSI06:1,2009-12-09T07:00:00Z,28.8667,-90.4833,1007.23,11111222 
WAVCIS,ioos:station:WAVCIS:CSI06:1,2009-12-09T08:00:00Z,28.8667,-90.4833,1006.914,11111222 
WAVCIS,ioos:station:WAVCIS:CSI06:1,2009-12-09T09:00:00Z,28.8667,-90.4833,1006.613,11111222 
WAVCIS,ioos:station:WAVCIS:CSI06:1,2009-12-09T10:00:00Z,28.8667,-90.4833,1006.988,11111222 
WAVCIS,ioos:station:WAVCIS:CSI06:1,2009-12-09T11:00:00Z,28.8667,-90.4833,1006.873,11111222 
WAVCIS,ioos:station:WAVCIS:CSI06:1,2009-12-09T12:00:00Z,28.8667,-90.4833,1007.46,11111222 
WAVCIS,ioos:station:WAVCIS:CSI06:1,2009-12-09T13:00:00Z,28.8667,-90.4833,1007.89,11111222 
WAVCIS,ioos:station:WAVCIS:CSI06:1,2009-12-09T14:00:00Z,28.8667,-90.4833,1008.47,11111222 
WAVCIS,ioos:station:WAVCIS:CSI06:1,2009-12-09T15:00:00Z,28.8667,-90.4833,1009.6,11111222 
WAVCIS,ioos:station:WAVCIS:CSI06:1,2009-12-09T16:00:00Z,28.8667,-90.4833,1010.13,11111222 
WAVCIS,ioos:station:WAVCIS:CSI06:1,2009-12-09T17:00:00Z,28.8667,-90.4833,1009.49,11111222 
WAVCIS,ioos:station:WAVCIS:CSI06:1,2009-12-09T18:00:00Z,28.8667,-90.4833,1008.43,11111222 
WAVCIS,ioos:station:WAVCIS:CSI06:1,2009-12-09T19:00:00Z,28.8667,-90.4833,1008.36,11111222 
WAVCIS,ioos:station:WAVCIS:CSI06:1,2009-12-09T20:00:00Z,28.8667,-90.4833,1008.12,11111222 
WAVCIS,ioos:station:WAVCIS:CSI06:1,2009-12-09T21:00:00Z,28.8667,-90.4833,1008.67,11111222 
WAVCIS,ioos:station:WAVCIS:CSI06:1,2009-12-09T22:00:00Z,28.8667,-90.4833,1009.44,11111222 
WAVCIS,ioos:station:WAVCIS:CSI06:1,2009-12-09T23:00:00Z,28.8667,-90.4833,1010.09,11111222 
WAVCIS,ioos:station:WAVCIS:CSI06:1,2009-12-10T00:00:00Z,28.8667,-90.4833,1011.08,11111222 
WAVCIS,ioos:station:WAVCIS:CSI06:1,2009-12-10T01:00:00Z,28.8667,-90.4833,1011.8,11111222 
WAVCIS,ioos:station:WAVCIS:CSI06:1,2009-12-10T02:00:00Z,28.8667,-90.4833,1012.37,11111222 
WAVCIS,ioos:station:WAVCIS:CSI06:1,2009-12-10T03:00:00Z,28.8667,-90.4833,1013.04,11111222 
WAVCIS,ioos:station:WAVCIS:CSI06:1,2009-12-10T04:00:00Z,28.8667,-90.4833,1013.15,11111222 
WAVCIS,ioos:station:WAVCIS:CSI06:1,2009-12-10T05:00:00Z,28.8667,-90.4833,1013.51,11111222 
WAVCIS,ioos:station:WAVCIS:CSI06:1,2009-12-10T06:00:00Z,28.8667,-90.4833,1013.78,11111222 
WAVCIS,ioos:station:WAVCIS:CSI06:1,2009-12-10T07:00:00Z,28.8667,-90.4833,1013.57,11111222 
WAVCIS,ioos:station:WAVCIS:CSI06:1,2009-12-10T08:00:00Z,28.8667,-90.4833,1014.03,11111222 
WAVCIS,ioos:station:WAVCIS:CSI06:1,2009-12-10T09:00:00Z,28.8667,-90.4833,1015.41,11111222 
WAVCIS,ioos:station:WAVCIS:CSI06:1,2009-12-10T10:00:00Z,28.8667,-90.4833,1015.6,11111222 
WAVCIS,ioos:station:WAVCIS:CSI06:1,2009-12-10T11:00:00Z,28.8667,-90.4833,1016.21,11111222 
WAVCIS,ioos:station:WAVCIS:CSI06:1,2009-12-10T12:00:00Z,28.8667,-90.4833,1016.92,11111222 
WAVCIS,ioos:station:WAVCIS:CSI06:1,2009-12-10T13:00:00Z,28.8667,-90.4833,1017.84,11111222 
WAVCIS,ioos:station:WAVCIS:CSI06:1,2009-12-10T14:00:00Z,28.8667,-90.4833,1019.09,11111222 
WAVCIS,ioos:station:WAVCIS:CSI06:1,2009-12-10T15:00:00Z,28.8667,-90.4833,1020.35,11111222 
WAVCIS,ioos:station:WAVCIS:CSI06:1,2009-12-10T16:00:00Z,28.8667,-90.4833,1020.91,11111222 
WAVCIS,ioos:station:WAVCIS:CSI06:1,2009-12-10T17:00:00Z,28.8667,-90.4833,1020.61,11111222 
WAVCIS,ioos:station:WAVCIS:CSI06:1,2009-12-10T18:00:00Z,28.8667,-90.4833,1019.94,11111222 
WAVCIS,ioos:station:WAVCIS:CSI06:1,2009-12-10T19:00:00Z,28.8667,-90.4833,1019.15,11111222 
WAVCIS,ioos:station:WAVCIS:CSI06:1,2009-12-10T20:00:00Z,28.8667,-90.4833,1019.3,11111222 
WAVCIS,ioos:station:WAVCIS:CSI06:1,2009-12-10T21:00:00Z,28.8667,-90.4833,1019.62,11111222 
WAVCIS,ioos:station:WAVCIS:CSI06:1,2009-12-10T22:00:00Z,28.8667,-90.4833,1019.97,11111222 
WAVCIS,ioos:station:WAVCIS:CSI06:1,2009-12-10T23:00:00Z,28.8667,-90.4833,1020.43,11111222 
WAVCIS,ioos:station:WAVCIS:CSI06:1,2009-12-11T00:00:00Z,28.8667,-90.4833,1020.99,11111222 
WAVCIS,ioos:station:WAVCIS:CSI06:1,2009-12-11T01:00:00Z,28.8667,-90.4833,1021.53,11111222 
WAVCIS,ioos:station:WAVCIS:CSI06:1,2009-12-11T02:00:00Z,28.8667,-90.4833,1021.89,11111222 
WAVCIS,ioos:station:WAVCIS:CSI06:1,2009-12-11T03:00:00Z,28.8667,-90.4833,1021.83,11111222 
WAVCIS,ioos:station:WAVCIS:CSI06:1,2009-12-11T04:00:00Z,28.8667,-90.4833,1021.61,11111222 
WAVCIS,ioos:station:WAVCIS:CSI06:1,2009-12-11T05:00:00Z,28.8667,-90.4833,1021.83,11111222 
WAVCIS,ioos:station:WAVCIS:CSI06:1,2009-12-11T06:00:00Z,28.8667,-90.4833,1021.78,11111222 
WAVCIS,ioos:station:WAVCIS:CSI06:1,2009-12-11T07:00:00Z,28.8667,-90.4833,1021.6,11111222 
WAVCIS,ioos:station:WAVCIS:CSI06:1,2009-12-11T08:00:00Z,28.8667,-90.4833,1021.53,11111222 
WAVCIS,ioos:station:WAVCIS:CSI06:1,2009-12-11T09:00:00Z,28.8667,-90.4833,1021.42,11111222 
WAVCIS,ioos:station:WAVCIS:CSI06:1,2009-12-11T10:00:00Z,28.8667,-90.4833,1021.6,11111222 
WAVCIS,ioos:station:WAVCIS:CSI06:1,2009-12-11T11:00:00Z,28.8667,-90.4833,1021.66,11111222 
WAVCIS,ioos:station:WAVCIS:CSI06:1,2009-12-11T12:00:00Z,28.8667,-90.4833,1021.6,11111222 
WAVCIS,ioos:station:WAVCIS:CSI06:1,2009-12-11T13:00:00Z,28.8667,-90.4833,1021.84,11111222 
WAVCIS,ioos:station:WAVCIS:CSI06:1,2009-12-11T14:00:00Z,28.8667,-90.4833,1022.52,11111222 
WAVCIS,ioos:station:WAVCIS:CSI06:1,2009-12-11T15:00:00Z,28.8667,-90.4833,1023.79,11111222 
WAVCIS,ioos:station:WAVCIS:CSI06:1,2009-12-11T16:00:00Z,28.8667,-90.4833,1024.16,11111222 
WAVCIS,ioos:station:WAVCIS:CSI06:1,2009-12-11T17:00:00Z,28.8667,-90.4833,1023.64,11111222 
WAVCIS,ioos:station:WAVCIS:CSI06:1,2009-12-11T18:00:00Z,28.8667,-90.4833,1022.22,11111222 
WAVCIS,ioos:station:WAVCIS:CSI06:1,2009-12-11T19:00:00Z,28.8667,-90.4833,1021.33,11111222 
WAVCIS,ioos:station:WAVCIS:CSI06:1,2009-12-11T20:00:00Z,28.8667,-90.4833,1021.1,11111222 
WAVCIS,ioos:station:WAVCIS:CSI06:1,2009-12-11T21:00:00Z,28.8667,-90.4833,1021.46,11111222 